TimeCST,TemperatureF,Dew PointF,Humidity,Sea Level PressureIn,VisibilityMPH,Wind Direction,Wind SpeedMPH,Gust SpeedMPH,PrecipitationIn,Events,Conditions,WindDirDegrees,DateUTC
12:13 AM,30.2,26.6,86,30.27,10.0,South,6.9,-,N/A,,Overcast,170,2012-11-17 06:13:00
12:32 AM,30.2,26.6,86,30.27,10.0,South,4.6,-,N/A,,Overcast,170,2012-11-17 06:32:00
12:53 AM,32.0,26.6,80,30.26,10.0,South,5.8,-,N/A,,Overcast,180,2012-11-17 06:53:00
1:13 AM,32.0,26.6,80,30.25,10.0,South,8.1,-,N/A,,Overcast,170,2012-11-17 07:13:00
1:33 AM,33.8,26.6,75,30.25,10.0,South,6.9,-,N/A,,Overcast,180,2012-11-17 07:33:00
1:53 AM,33.8,26.6,75,30.25,10.0,South,6.9,-,N/A,,Overcast,180,2012-11-17 07:53:00
2:13 AM,33.8,26.6,75,30.25,10.0,South,4.6,-,N/A,,Overcast,180,2012-11-17 08:13:00
2:32 AM,33.8,26.6,75,30.24,10.0,South,8.1,-,N/A,,Scattered Clouds,180,2012-11-17 08:32:00
2:53 AM,33.8,26.6,75,30.23,10.0,South,11.5,17.3,N/A,,Clear,180,2012-11-17 08:53:00
3:13 AM,33.8,26.6,75,30.22,10.0,South,9.2,17.3,N/A,,Clear,180,2012-11-17 09:13:00
3:32 AM,33.8,26.6,75,30.22,10.0,South,10.4,18.4,N/A,,Clear,180,2012-11-17 09:32:00
3:53 AM,33.8,26.6,75,30.21,10.0,South,10.4,-,N/A,,Clear,180,2012-11-17 09:53:00
4:13 AM,35.6,26.6,70,30.21,10.0,South,9.2,17.3,N/A,,Clear,180,2012-11-17 10:13:00
4:32 AM,33.8,26.6,75,30.21,10.0,South,8.1,-,N/A,,Clear,190,2012-11-17 10:32:00
4:53 AM,35.6,28.4,75,30.20,10.0,South,9.2,-,N/A,,Clear,180,2012-11-17 10:53:00
5:13 AM,35.6,28.4,75,30.20,10.0,South,8.1,16.1,N/A,,Clear,180,2012-11-17 11:13:00
5:32 AM,35.6,28.4,75,30.19,10.0,South,9.2,-,N/A,,Clear,180,2012-11-17 11:32:00
5:53 AM,35.6,28.4,75,30.19,10.0,South,10.4,16.1,N/A,,Clear,180,2012-11-17 11:53:00
6:13 AM,35.6,28.4,75,30.19,10.0,South,8.1,-,N/A,,Clear,170,2012-11-17 12:13:00
6:33 AM,35.6,28.4,75,30.19,10.0,South,5.8,-,N/A,,Clear,180,2012-11-17 12:33:00
6:53 AM,35.6,28.4,75,30.19,10.0,South,6.9,-,N/A,,Clear,190,2012-11-17 12:53:00
7:12 AM,35.6,28.4,75,30.19,10.0,South,9.2,-,N/A,,Clear,190,2012-11-17 13:12:00
7:33 AM,35.6,30.2,81,30.19,10.0,South,8.1,-,N/A,,Clear,180,2012-11-17 13:33:00
7:53 AM,35.6,30.2,81,30.19,10.0,South,9.2,-,N/A,,Clear,180,2012-11-17 13:53:00
8:12 AM,35.6,30.2,81,30.18,10.0,South,13.8,19.6,N/A,,Clear,180,2012-11-17 14:12:00
8:33 AM,37.4,30.2,75,30.18,10.0,South,10.4,20.7,N/A,,Clear,180,2012-11-17 14:33:00
8:52 AM,37.4,30.2,75,30.18,10.0,South,9.2,-,N/A,,Clear,190,2012-11-17 14:52:00
9:13 AM,37.4,30.2,75,30.19,10.0,South,11.5,17.3,N/A,,Clear,190,2012-11-17 15:13:00
9:33 AM,39.2,30.2,70,30.19,10.0,South,9.2,-,N/A,,Clear,180,2012-11-17 15:33:00
9:52 AM,41.0,32.0,70,30.18,10.0,South,8.1,17.3,N/A,,Clear,170,2012-11-17 15:52:00
10:13 AM,42.8,32.0,66,30.18,10.0,SSW,10.4,17.3,N/A,,Clear,200,2012-11-17 16:13:00
10:33 AM,42.8,32.0,66,30.18,10.0,SSW,8.1,-,N/A,,Clear,200,2012-11-17 16:33:00
10:52 AM,42.8,32.0,66,30.18,10.0,South,6.9,18.4,N/A,,Clear,190,2012-11-17 16:52:00
11:13 AM,44.6,32.0,61,30.17,10.0,South,11.5,-,N/A,,Clear,190,2012-11-17 17:13:00
11:33 AM,44.6,32.0,61,30.17,10.0,South,10.4,-,N/A,,Clear,190,2012-11-17 17:33:00
11:52 AM,44.6,32.0,61,30.17,10.0,SSW,8.1,-,N/A,,Clear,200,2012-11-17 17:52:00
12:13 PM,46.4,33.8,62,30.16,10.0,South,12.7,-,N/A,,Clear,190,2012-11-17 18:13:00
12:33 PM,46.4,32.0,57,30.16,10.0,SSW,9.2,-,N/A,,Clear,200,2012-11-17 18:33:00
12:52 PM,46.4,33.8,62,30.16,10.0,SSW,8.1,-,N/A,,Clear,200,2012-11-17 18:52:00
1:13 PM,46.4,33.8,62,30.15,10.0,South,8.1,-,N/A,,Clear,170,2012-11-17 19:13:00
1:33 PM,48.2,33.8,58,30.15,10.0,South,9.2,-,N/A,,Clear,190,2012-11-17 19:33:00
1:52 PM,48.2,33.8,58,30.15,10.0,South,8.1,-,N/A,,Clear,180,2012-11-17 19:52:00
2:13 PM,48.2,33.8,58,30.14,10.0,South,8.1,-,N/A,,Clear,180,2012-11-17 20:13:00
2:33 PM,48.2,33.8,58,30.14,10.0,South,6.9,-,N/A,,Clear,170,2012-11-17 20:33:00
2:53 PM,48.2,33.8,58,30.15,10.0,South,8.1,-,N/A,,Clear,190,2012-11-17 20:53:00
3:13 PM,48.2,33.8,58,30.15,10.0,South,6.9,-,N/A,,Clear,170,2012-11-17 21:13:00
3:32 PM,48.2,33.8,58,30.15,10.0,South,9.2,-,N/A,,Clear,170,2012-11-17 21:32:00
3:53 PM,46.4,33.8,62,30.15,10.0,South,6.9,-,N/A,,Clear,180,2012-11-17 21:53:00
4:13 PM,46.4,33.8,62,30.15,10.0,South,6.9,-,N/A,,Clear,170,2012-11-17 22:13:00
4:33 PM,46.4,33.8,62,30.15,10.0,South,6.9,-,N/A,,Clear,170,2012-11-17 22:33:00
4:53 PM,46.4,33.8,62,30.14,10.0,South,8.1,16.1,N/A,,Clear,170,2012-11-17 22:53:00
5:12 PM,44.6,33.8,66,30.14,10.0,South,8.1,-,N/A,,Clear,170,2012-11-17 23:12:00
5:33 PM,44.6,33.8,66,30.15,10.0,South,9.2,-,N/A,,Clear,170,2012-11-17 23:33:00
5:53 PM,44.6,33.8,66,30.15,10.0,South,10.4,-,N/A,,Clear,180,2012-11-17 23:53:00
6:12 PM,44.6,33.8,66,30.15,10.0,South,9.2,-,N/A,,Clear,180,2012-11-18 00:12:00
6:33 PM,44.6,33.8,66,30.15,10.0,South,8.1,-,N/A,,Clear,180,2012-11-18 00:33:00
6:52 PM,44.6,33.8,66,30.15,10.0,South,10.4,-,N/A,,Clear,170,2012-11-18 00:52:00
7:12 PM,46.4,33.8,62,30.15,10.0,South,10.4,-,N/A,,Scattered Clouds,180,2012-11-18 01:12:00
7:33 PM,46.4,33.8,62,30.16,10.0,South,12.7,17.3,N/A,,Scattered Clouds,190,2012-11-18 01:33:00
7:53 PM,46.4,35.6,66,30.16,10.0,South,10.4,18.4,N/A,,Scattered Clouds,190,2012-11-18 01:53:00
8:13 PM,46.4,35.6,66,30.17,10.0,SSW,11.5,17.3,N/A,,Scattered Clouds,200,2012-11-18 02:13:00
8:32 PM,46.4,35.6,66,30.17,10.0,South,11.5,17.3,N/A,,Overcast,180,2012-11-18 02:32:00
8:53 PM,46.4,35.6,66,30.17,10.0,South,9.2,17.3,N/A,,Mostly Cloudy,180,2012-11-18 02:53:00
9:13 PM,46.4,35.6,66,30.17,10.0,SSW,9.2,-,N/A,,Scattered Clouds,200,2012-11-18 03:13:00
9:32 PM,46.4,35.6,66,30.17,10.0,SSW,9.2,-,N/A,,Scattered Clouds,200,2012-11-18 03:32:00
9:53 PM,46.4,35.6,66,30.17,10.0,SSW,9.2,17.3,N/A,,Light Drizzle,200,2012-11-18 03:53:00
10:13 PM,46.4,35.6,66,30.17,10.0,SSW,11.5,17.3,N/A,,Scattered Clouds,200,2012-11-18 04:13:00
10:32 PM,46.4,35.6,66,30.18,10.0,SSW,10.4,16.1,N/A,,Mostly Cloudy,200,2012-11-18 04:32:00
10:53 PM,44.6,37.4,76,30.17,10.0,South,11.5,17.3,N/A,,Overcast,190,2012-11-18 04:53:00
11:13 PM,44.6,37.4,76,30.18,10.0,South,11.5,19.6,N/A,,Overcast,190,2012-11-18 05:13:00
11:32 PM,44.6,37.4,76,30.17,10.0,South,12.7,19.6,N/A,,Overcast,180,2012-11-18 05:32:00
11:53 PM,44.6,37.4,76,30.17,10.0,South,11.5,-,N/A,,Overcast,180,2012-11-18 05:53:00